Location: Kluczbork
(50.5800°N, 18.1300°E)
Time: 10:59:55
(UTC+02:00)

ISS - Visible Passes

Search period start: 26 September 2018 00:00
Search period end: 06 October 2018 00:00
Orbit: 403 x 408 km, 51.6° (Epoch: 26 September)

Date Brightness Start Highest point End Pass type
(mag) Time Alt. Az. Time Alt. Az. Time Alt. Az.
26 Sep -3.9 20:12:16 10° WSW 20:15:32 67° SSE 20:16:23 44° E visible
26 Sep -0.5 21:48:47 10° W 21:49:04 12° W 21:49:04 12° W visible
27 Sep -3.4 19:20:30 10° SW 19:23:42 47° SSE 19:26:35 12° E visible
27 Sep -2.7 20:56:50 10° W 20:59:15 45° W 20:59:15 45° W visible
28 Sep -3.9 20:04:53 10° WSW 20:08:12 86° NNW 20:09:23 37° ENE visible
28 Sep -0.7 21:41:30 10° W 21:42:03 14° WNW 21:42:03 14° WNW visible
29 Sep -3.8 19:12:59 10° WSW 19:16:16 76° SSE 19:19:26 11° ENE visible
29 Sep -2.9 20:49:33 10° W 20:52:07 49° WNW 20:52:07 49° WNW visible
30 Sep -3.7 19:57:33 10° W 20:00:52 72° N 20:02:08 34° ENE visible
30 Sep -0.7 21:34:09 10° WNW 21:34:48 15° WNW 21:34:48 15° WNW visible
01 Oct -3.8 19:05:34 10° W 19:08:53 81° N 19:12:07 10° ENE visible
01 Oct -3.0 20:42:11 10° WNW 20:44:47 52° WNW 20:44:47 52° WNW visible
02 Oct -3.8 19:50:11 10° W 19:53:30 73° N 19:54:46 34° E visible
02 Oct -0.8 21:26:44 10° WNW 21:27:26 15° W 21:27:26 15° W visible
03 Oct -3.7 18:58:09 10° W 19:01:28 71° N 19:04:44 10° E visible
03 Oct -3.1 20:34:44 10° WNW 20:37:24 53° W 20:37:24 53° W visible
04 Oct -3.9 19:42:44 10° WNW 19:46:03 87° NNE 19:47:23 33° E visible
04 Oct -0.8 21:19:23 10° W 21:20:03 14° W 21:20:03 14° W visible
05 Oct -3.7 18:50:42 10° W 18:54:01 75° N 18:57:19 10° E visible
05 Oct -2.9 20:27:16 10° W 20:30:03 43° SW 20:30:03 43° SW visible
